Dewpoint
50 48 47 44 44 44 44 44 44 44 44 44 45 46 45 45 45 44 44 41 40 39
51 49 48 46 44 45 46 45 44 44 44 44 45 46 46 45 45 44 44 43 42 41
50 50 49 47 46 45 46 45 44 44 45 45 45 46 46 45 44 44 45 45 43 43
51 51 50 49 47 47 46 46 45 44 45 45 46 46 46 46 44 44 44 45 44 43
51 51 50 49 49 49 48 48 48 48 47 47 46 46 46 45 45 44 44 43 43 42
51 51 51 50 50 50 49 49 49 48 47 46 45 45 45 44 44 43 43 43 42 43
51 51 51 51 51 50 50 49 50 50 49 49 48 47 46 45 45 45 45 45 45 45
51 51 51 51 51 51 51 51 51 50 50 50 49 48 47 47 47 46 46 46 46 46
50 51 50 50 50 50 50 50 50 49 49 48 48 48 48 47 47 46 46 45 45 45
49 49 49 49 49 48 48 49 48 48 48 48 48 48 48 47 46 46 45 44 43 40
47 47 48 47 47 46 47 47 46 46 46 46 45 47 47 46 44 43 42 41 39 35
45 45 44 43 43 42 41 41 41 42 43 42 43 44 44 41 40 39 38 36 34 31
44 43 41 40 40 38 37 36 35 35 37 40 42 42 38 35 33 31 29 29 31 30
39 40 39 38 37 35 34 33 35 37 39 40 39 38 37 34 32 31 30 31 31 34
Wind_Speed
11 10 11 13 15 16 12 12 12 10 13 11 11 12 12 12 12 11 11 14 12 9
12 10 9 8 12 12 14 14 16 13 11 11 11 10 11 12 13 12 12 12 12 9
13 11 12 11 13 15 14 14 17 16 14 11 10 10 10 10 10 10 8 10 11 9
12 14 15 14 15 16 12 13 12 16 16 16 16 15 13 10 12 13 11 9 10 9
11 13 16 16 17 17 16 15 16 13 17 15 13 15 17 14 12 15 13 11 11 11
12 12 13 15 14 14 15 14 16 16 14 14 14 13 12 14 13 12 10 13 12 11
9 11 12 12 13 15 14 15 13 13 13 13 13 12 13 14 14 12 10 10 9 9
7 8 9 11 12 12 13 13 14 13 14 13 13 12 13 13 14 13 13 10 11 11
7 7 7 7 7 7 9 9 11 12 12 13 10 14 17 14 13 13 13 14 12 10
11 11 10 9 8 7 7 8 10 11 13 12 9 13 16 15 11 12 12 12 11 7
10 11 10 11 11 9 7 9 9 8 7 8 5 7 10 11 8 8 9 9 10 11
10 11 13 13 12 10 10 10 10 9 10 10 9 10 12 10 9 9 8 8 10 10
9 12 13 12 14 12 11 12 13 14 12 11 12 12 11 11 12 13 11 9 9 11
14 13 12 11 12 16 12 14 16 16 15 13 12 12 11 9 10 13 11 9 7 6
Wind_Direction
150 160 150 163 153 162 164 159 152 153 153 158 159 159 157 167 172 171 166 171 175 174
160 141 154 155 155 151 147 143 147 148 153 146 153 154 162 171 174 178 177 183 173 175
171 151 134 156 155 154 152 146 145 142 140 143 149 160 163 165 165 163 171 169 164 146
168 161 154 157 150 143 145 147 156 156 160 163 164 165 162 161 164 162 157 152 154 140
168 168 168 167 159 149 156 153 143 140 142 144 151 147 151 157 158 160 165 159 156 163
165 172 168 175 171 163 158 157 153 152 156 158 161 159 158 159 168 171 175 166 167 177
168 163 163 163 169 184 179 176 175 167 173 176 176 175 172 169 173 173 175 184 186 194
156 154 153 156 169 169 169 173 175 177 179 186 190 185 180 183 187 186 194 195 201 202
121 133 143 157 166 170 165 167 170 180 179 186 183 181 184 183 192 193 191 200 196 195
109 108 112 122 131 147 162 163 172 174 178 185 189 194 192 188 183 185 188 187 184 181
116 115 117 109 105 105 123 136 138 138 140 145 141 161 177 158 151 150 150 157 171 176
103 109 106 103 103 100 103 103 102 111 115 124 113 120 125 120 121 127 143 165 174 171
97 98 102 104 100 107 101 101 100 98 98 105 108 120 131 133 128 123 112 98 97 115
75 87 93 107 108 99 101 94 86 83 79 87 102 105 101 120 124 132 133 140 147 144